When you browse on this site, cookies collect data to enhance your experience and personalize the content and advertising you see.
Visit our Privacy Policy to learn more. By continuing to use the site, you agree to this use of cookies and data.
  • In United Kingdom
  • List of Countries
  • For 7 days
  • Water Temperature
  • Weather Map
  • Weather Widgets
  • user-avatar
    Login

    Hourly Weather Goiania

    Today, 21 February, Friday

    Time Temperature Precipitation Wind Pressure Humidity
    00:00 +24°C° 0.3 mm 2 mps 698 mmHg 91%
    01:00 +23°C° 0 mm 2 mps 697 mmHg 91%
    02:00 +23°C° 0 mm 2 mps 697 mmHg 91%
    03:00 +23°C° 0 mm 2 mps 697 mmHg 91%
    10:00 +27°C° 0.1 mm 3 mps 699 mmHg 80%
    11:00 +28°C° 0.1 mm 3 mps 699 mmHg 77%
    12:00 +29°C° 0.1 mm 3 mps 699 mmHg 74%
    13:00 +29°C° 0.6 mm 3 mps 698 mmHg 74%
    14:00 +29°C° 0.6 mm 2 mps 697 mmHg 74%
    15:00 +29°C° 0.6 mm 2 mps 697 mmHg 74%
    16:00 +28°C° 1 mm 2 mps 696 mmHg 78%
    17:00 +28°C° 1 mm 2 mps 696 mmHg 83%
    18:00 +27°C° 1 mm 2 mps 696 mmHg 88%
    19:00 +26°C° 0.3 mm 1 mps 697 mmHg 89%
    20:00 +25°C° 0.3 mm 1 mps 697 mmHg 90%
    21:00 +24°C° 0.3 mm 1 mps 698 mmHg 91%
    22:00 +24°C° 0.1 mm 1 mps 698 mmHg 91%
    23:00 +24°C° 0.1 mm 1 mps 698 mmHg 92%

    Tomorrow, 22 February, Saturday

    Time Temperature Precipitation Wind Pressure Humidity
    00:00 +23°C° 0.1 mm 1 mps 698 mmHg 92%
    01:00 +23°C° 0.5 mm 1 mps 698 mmHg 92%
    02:00 +23°C° 0.5 mm 1 mps 697 mmHg 92%
    03:00 +23°C° 0.5 mm 1 mps 697 mmHg 93%
    04:00 +23°C° 0.4 mm 1 mps 697 mmHg 92%
    05:00 +23°C° 0.4 mm 1 mps 698 mmHg 91%
    06:00 +23°C° 0.4 mm 1 mps 698 mmHg 91%
    07:00 +24°C° 0.1 mm 2 mps 699 mmHg 88%
    08:00 +25°C° 0.1 mm 2 mps 699 mmHg 85%
    09:00 +26°C° 0.1 mm 3 mps 700 mmHg 83%
    10:00 +27°C° 0.2 mm 3 mps 699 mmHg 79%
    11:00 +28°C° 0.2 mm 3 mps 699 mmHg 76%
    12:00 +29°C° 0.2 mm 3 mps 699 mmHg 73%
    13:00 +29°C° 0.7 mm 3 mps 699 mmHg 74%
    14:00 +29°C° 0.7 mm 3 mps 698 mmHg 76%
    15:00 +29°C° 0.7 mm 3 mps 698 mmHg 78%
    16:00 +28°C° 1 mm 3 mps 698 mmHg 81%
    17:00 +27°C° 1 mm 2 mps 697 mmHg 85%
    18:00 +26°C° 1 mm 2 mps 697 mmHg 88%
    19:00 +26°C° 1.7 mm 2 mps 698 mmHg 90%
    20:00 +25°C° 1.7 mm 2 mps 698 mmHg 91%
    21:00 +24°C° 1.7 mm 1 mps 699 mmHg 93%
    22:00 +24°C° 1.8 mm 1 mps 699 mmHg 93%
    23:00 +24°C° 1.8 mm 1 mps 699 mmHg 94%

    Day after tomorrow, 23 February, Sunday

    Time Temperature Precipitation Wind Pressure Humidity
    00:00 +24°C° 1.8 mm 1 mps 699 mmHg 94%
    01:00 +23°C° 1 mm 1 mps 699 mmHg 94%
    02:00 +23°C° 1 mm 1 mps 698 mmHg 95%
    03:00 +23°C° 1 mm 1 mps 698 mmHg 95%
    04:00 +23°C° 0.9 mm 1 mps 698 mmHg 95%
    05:00 +21°C° 0.9 mm 0 mps 698 mmHg 95%
    06:00 +21°C° 0.9 mm 0 mps 699 mmHg 94%
    07:00 +22°C° 0.3 mm 0 mps 699 mmHg 92%
    08:00 +23°C° 0.3 mm 0 mps 700 mmHg 90%
    09:00 +23°C° 0.3 mm 0 mps 700 mmHg 88%
    10:00 +27°C° 1.3 mm 1 mps 700 mmHg 84%
    11:00 +28°C° 1.3 mm 1 mps 700 mmHg 80%
    12:00 +29°C° 1.3 mm 1 mps 700 mmHg 76%
    13:00 +30°C° 1.2 mm 1 mps 699 mmHg 76%
    14:00 +30°C° 1.2 mm 2 mps 698 mmHg 75%
    15:00 +30°C° 1.2 mm 2 mps 698 mmHg 75%
    16:00 +29°C° 1.3 mm 2 mps 697 mmHg 78%
    17:00 +28°C° 1.3 mm 1 mps 697 mmHg 81%
    18:00 +28°C° 1.3 mm 1 mps 697 mmHg 84%
    19:00 +27°C° 1.4 mm 1 mps 697 mmHg 86%
    20:00 +26°C° 1.4 mm 1 mps 698 mmHg 87%
    21:00 +25°C° 1.4 mm 1 mps 698 mmHg 88%
    22:00 +25°C° 1.6 mm 1 mps 698 mmHg 89%
    23:00 +24°C° 1.6 mm 1 mps 698 mmHg 89%

    24 February, Monday

    Time Temperature Precipitation Wind Pressure Humidity
    00:00 +24°C° 1.6 mm 1 mps 698 mmHg 90%
    01:00 +24°C° 1.2 mm 1 mps 698 mmHg 91%
    02:00 +23°C° 1.2 mm 1 mps 698 mmHg 92%
    03:00 +23°C° 1.2 mm 1 mps 697 mmHg 93%
    04:00 +23°C° 0.6 mm 1 mps 697 mmHg 93%
    05:00 +23°C° 0.6 mm 1 mps 697 mmHg 94%
    06:00 +22°C° 0.6 mm 1 mps 698 mmHg 95%
    07:00 +23°C° 0.3 mm 1 mps 698 mmHg 93%
    08:00 +24°C° 0.3 mm 1 mps 699 mmHg 91%
    09:00 +23°C° 0.3 mm 0 mps 699 mmHg 89%
    10:00 +26°C° 1.4 mm 1 mps 699 mmHg 86%
    11:00 +27°C° 1.4 mm 1 mps 699 mmHg 82%
    12:00 +29°C° 1.4 mm 2 mps 699 mmHg 79%
    13:00 +28°C° 1 mm 2 mps 698 mmHg 80%
    14:00 +28°C° 1 mm 2 mps 698 mmHg 80%
    15:00 +28°C° 1 mm 2 mps 697 mmHg 81%
    16:00 +28°C° 0.5 mm 2 mps 697 mmHg 84%
    17:00 +27°C° 0.5 mm 1 mps 696 mmHg 87%
    18:00 +26°C° 0.5 mm 1 mps 696 mmHg 90%
    19:00 +25°C° 0.1 mm 1 mps 697 mmHg 90%
    20:00 +23°C° 0.1 mm 0 mps 697 mmHg 90%
    21:00 +22°C° 0.1 mm 0 mps 697 mmHg 91%
    22:00 +22°C° 0.2 mm 0 mps 698 mmHg 91%
    23:00 +22°C° 0.2 mm 0 mps 698 mmHg 92%

    25 February, Tuesday

    Time Temperature Precipitation Wind Pressure Humidity
    00:00 +23°C° 0.2 mm 1 mps 698 mmHg 92%
    01:00 +23°C° 0.1 mm 1 mps 698 mmHg 92%
    02:00 +23°C° 0.1 mm 1 mps 697 mmHg 93%
    03:00 +23°C° 0.1 mm 1 mps 697 mmHg 93%
    04:00 +23°C° 0 mm 1 mps 697 mmHg 93%
    05:00 +23°C° 0 mm 1 mps 697 mmHg 93%
    06:00 +23°C° 0 mm 1 mps 698 mmHg 93%
    07:00 +24°C° 0.2 mm 1 mps 698 mmHg 92%
    08:00 +25°C° 0.2 mm 1 mps 699 mmHg 90%
    09:00 +26°C° 0.2 mm 1 mps 699 mmHg 89%
    10:00 +27°C° 0.8 mm 2 mps 699 mmHg 85%
    11:00 +28°C° 0.8 mm 2 mps 699 mmHg 81%
    12:00 +29°C° 0.8 mm 2 mps 699 mmHg 77%
    13:00 +29°C° 1.3 mm 2 mps 698 mmHg 75%
    14:00 +30°C° 1.3 mm 2 mps 698 mmHg 74%
    15:00 +30°C° 1.3 mm 2 mps 697 mmHg 73%
    16:00 +29°C° 1.2 mm 2 mps 697 mmHg 76%
    17:00 +29°C° 1.2 mm 1 mps 696 mmHg 80%
    18:00 +28°C° 1.2 mm 1 mps 696 mmHg 84%
    19:00 +27°C° 0.7 mm 1 mps 696 mmHg 85%
    20:00 +26°C° 0.7 mm 1 mps 697 mmHg 86%
    21:00 +25°C° 0.7 mm 1 mps 697 mmHg 87%
    22:00 +24°C° 0.8 mm 1 mps 697 mmHg 88%
    23:00 +24°C° 0.8 mm 1 mps 698 mmHg 89%

    26 February, Wednesday

    Time Temperature Precipitation Wind Pressure Humidity
    00:00 +24°C° 0.8 mm 2 mps 698 mmHg 91%
    01:00 +24°C° 0.2 mm 1 mps 697 mmHg 91%
    02:00 +23°C° 0.2 mm 1 mps 697 mmHg 92%
    03:00 +23°C° 0.2 mm 1 mps 697 mmHg 93%
    04:00 +23°C° 0.5 mm 1 mps 697 mmHg 93%
    05:00 +23°C° 0.5 mm 1 mps 697 mmHg 93%
    06:00 +23°C° 0.5 mm 1 mps 697 mmHg 93%
    07:00 +24°C° 0.4 mm 1 mps 697 mmHg 91%
    08:00 +24°C° 0.4 mm 1 mps 698 mmHg 90%
    09:00 +25°C° 0.4 mm 1 mps 699 mmHg 88%
    10:00 +26°C° 0.8 mm 2 mps 698 mmHg 87%
    11:00 +26°C° 0.8 mm 2 mps 698 mmHg 86%
    12:00 +27°C° 0.8 mm 2 mps 698 mmHg 84%
    13:00 +28°C° 1 mm 2 mps 697 mmHg 83%
    14:00 +28°C° 1 mm 2 mps 697 mmHg 81%
    15:00 +29°C° 1 mm 2 mps 696 mmHg 80%
    16:00 +28°C° 0.8 mm 2 mps 696 mmHg 83%
    17:00 +27°C° 0.8 mm 2 mps 695 mmHg 85%
    18:00 +26°C° 0.8 mm 2 mps 695 mmHg 88%
    19:00 +26°C° 0.6 mm 1 mps 695 mmHg 89%
    20:00 +25°C° 0.6 mm 1 mps 696 mmHg 89%
    21:00 +24°C° 0.6 mm 1 mps 696 mmHg 90%
    22:00 +24°C° 1.2 mm 1 mps 697 mmHg 90%
    23:00 +24°C° 1.2 mm 1 mps 697 mmHg 90%
    Show more